EW9060 Weather Reports


time (UTC)temp
C
wind
direction
speed
KPH
gust
KPH
rain 1hr
cm
rain 24hr
cm
rain mn
cm
humidity
%
barometer
mb
20260903053022 19 221 4.8 11.3 0.00 0.00 0.00 60 1016.0
20260903051512 20 240 1.6 9.7 0.00 0.00 0.00 60 1016.1
20260903050011 20 239 1.6 11.3 0.00 0.00 0.00 59 1016.2
20260903044512 20 184 1.6 8.0 0.00 0.00 0.00 59 1016.2
20260903043024 21 202 0.0 6.4 0.00 0.00 0.00 58 1016.2
20260903041510 21 171 0.0 4.8 0.00 0.00 0.00 57 1016.0
20260903040009 21 299 0.0 6.4 0.00 0.00 0.00 55 1015.8
20260903034508 21 227 0.0 4.8 0.00 0.00 0.00 53 1015.6
20260903033007 22 192 1.6 11.3 0.00 0.00 0.00 52 1015.4
20260903031506 22 175 0.0 9.7 0.00 0.00 0.00 50 1015.3
20260903030007 22 169 0.0 8.0 0.00 0.00 0.00 49 1015.2
20260903024505 23 201 3.2 12.9 0.00 0.00 0.00 48 1015.2
20260903023004 23 273 1.6 8.0 0.00 0.00 0.00 46 1015.3
20260903021509 23 181 1.6 11.3 0.00 0.00 0.00 46 1015.4
20260903020003 24 175 3.2 12.9 0.00 0.00 0.00 45 1015.4
20260903014605 24 234 4.8 14.5 0.00 0.00 0.00 46 1015.5
20260903013059 25 172 3.2 19.3 0.00 0.00 0.00 46 1015.6
20260903011604 25 225 6.4 16.1 0.00 0.00 0.00 46 1015.6
20260903010057 25 288 6.4 16.1 0.00 0.00 0.00 45 1015.7
20260903004556 25 215 6.4 17.7 0.00 0.00 0.00 46 1015.7
20260903003054 26 150 6.4 17.7 0.00 0.00 0.00 46 1015.8
20260903001554 26 165 6.4 16.1 0.00 0.00 0.00 46 1015.9
20260903000056 26 188 4.8 14.5 0.00 0.00 0.00 47 1016.1
20260902234548 25 234 1.6 12.9 0.00 0.00 0.00 47 1016.2
20260902233047 25 268 3.2 16.1 0.00 0.00 0.00 48 1016.3
20260902231546 26 252 6.4 16.1 0.00 0.00 0.00 48 1016.5
20260902230045 26 228 6.4 16.1 0.00 0.00 0.00 48 1016.5
20260902224544 25 147 6.4 19.3 0.00 0.00 0.00 49 1016.7
20260902223042 25 165 6.4 16.1 0.00 0.00 0.00 49 1016.9
20260902221542 25 227 4.8 16.1 0.00 0.00 0.00 51 1016.9
20260902220045 25 89 8.0 19.3 0.00 0.00 0.00 50 1017.0
20260902214537 25 230 3.2 20.9 0.00 0.00 0.00 52 1017.1
20260902213036 25 232 1.6 12.9 0.00 0.00 0.00 52 1017.2
20260902211540 25 135 4.8 16.1 0.00 0.00 0.00 53 1017.3
20260902210105 25 236 3.2 12.9 0.00 0.00 0.00 52 1017.5
20260902204540 25 152 4.8 14.5 0.00 0.00 0.00 52 1017.5
20260902203035 25 221 4.8 14.5 0.00 0.00 0.00 51 1017.5
20260902201536 25 163 9.7 19.3 0.00 0.00 0.00 51 1017.7
20260902200033 25 211 9.7 22.5 0.00 0.00 0.00 51 1018.0
20260902194534 25 121 6.4 14.5 0.00 0.00 0.00 53 1018.1
20260902193027 23 169 4.8 17.7 0.00 0.00 0.00 55 1018.3
20260902191524 23 213 3.2 11.3 0.00 0.00 0.00 58 1018.5
20260902190025 22 244 0.0 6.4 0.00 0.00 0.00 59 1018.7
20260902184515 22 208 1.6 12.9 0.00 0.00 0.00 59 1018.7
20260902183012 22 258 3.2 11.3 0.00 0.00 0.00 60 1018.6
20260902181510 21 209 1.6 9.7 0.00 0.00 0.00 61 1018.6
20260902180007 21 140 1.6 6.4 0.00 0.00 0.00 63 1018.6
20260902174504 21 138 1.6 14.5 0.00 0.00 0.00 63 1018.7
20260902173001 20 175 0.0 11.3 0.00 0.00 0.00 64 1018.6
20260902171558 20 213 0.0 11.3 0.00 0.00 0.00 66 1018.5
20260902170055 19 200 0.0 8.0 0.00 0.00 0.00 68 1018.4
20260902164551 18 140 4.8 12.9 0.00 0.00 0.00 69 1018.3
20260902163050 18 250 0.0 11.3 0.00 0.00 0.00 71 1018.2
20260902161549 18 180 1.6 14.5 0.00 0.00 0.00 72 1018.1
20260902160145 18 158 3.2 12.9 0.00 0.00 0.00 74 1018.4
20260902154543 17 136 3.2 14.5 0.00 0.00 0.00 75 1018.3
20260902153041 17 168 1.6 11.3 0.00 0.00 0.00 77 1018.3
20260902151543 16 132 3.2 11.3 0.00 0.00 0.00 78 1018.2
20260902150034 16 140 3.2 8.0 0.00 0.00 0.00 79 1018.1
20260902144537 16 117 0.0 11.3 0.00 0.00 0.00 81 1017.9
20260902143034 16 92 1.6 8.0 0.00 0.00 0.00 81 1017.8
20260902141529 16 101 3.2 11.3 0.00 0.00 0.00 81 1017.5
20260902140028 15 103 1.6 11.3 0.00 0.00 0.00 82 1017.6
20260902134533 15 144 1.6 6.4 0.00 0.00 0.00 82 1017.6
20260902133026 15 127 1.6 6.4 0.00 0.00 0.00 82 1017.4
20260902131526 15 129 3.2 6.4 0.00 0.00 0.00 82 1017.3
20260902130034 15 138 1.6 9.7 0.00 0.00 0.00 82 1017.2
20260902124526 15 156 1.6 11.3 0.00 0.00 0.00 82 1017.2
20260902123021 15 99 1.6 8.0 0.00 0.00 0.00 83 1017.1
20260902121520 15 151 0.0 8.0 0.00 0.00 0.00 83 1017.1
20260902120019 15 146 0.0 8.0 0.00 0.00 0.00 83 1017.1
20260902114518 15 160 1.6 8.0 0.00 0.00 0.00 83 1017.0
20260902113018 15 169 1.6 9.7 0.00 0.00 0.00 83 1017.0
20260902111517 16 171 3.2 8.0 0.00 0.00 0.00 82 1016.8
20260902110015 16 176 0.0 9.7 0.00 0.00 0.00 82 1017.0
20260902104523 16 153 4.8 12.9 0.00 0.00 0.00 82 1017.2
20260902103017 16 199 3.2 11.3 0.00 0.00 0.00 81 1017.2
20260902101525 16 176 0.0 8.0 0.00 0.00 0.00 81 1017.2
20260902100011 16 134 3.2 9.7 0.00 0.00 0.00 80 1017.4
20260902094510 16 164 1.6 14.5 0.00 0.00 0.00 80 1017.3
20260902093008 16 166 3.2 17.7 0.00 0.00 0.00 79 1017.4
20260902091508 16 144 4.8 12.9 0.00 0.00 0.00 79 1017.3
20260902090006 16 144 3.2 9.7 0.00 0.00 0.00 79 1017.3
20260902084505 16 156 3.2 11.3 0.00 0.00 0.00 79 1017.2
20260902083003 16 138 6.4 14.5 0.00 0.00 0.00 79 1017.2
20260902081502 16 134 3.2 11.3 0.00 0.00 0.00 79 1017.1
20260902080113 16 177 3.2 11.3 0.00 0.00 0.00 79 1017.0
20260902074558 17 169 3.2 11.3 0.00 0.00 0.00 78 1016.9
20260902073056 17 160 3.2 17.7 0.00 0.00 0.00 78 1016.9
20260902071555 17 165 1.6 11.3 0.00 0.00 0.00 77 1016.9
20260902070053 17 192 4.8 17.7 0.00 0.00 0.00 77 1016.8
20260902064652 17 148 1.6 14.5 0.00 0.00 0.00 76 1016.7
20260902063052 17 175 3.2 14.5 0.00 0.00 0.00 76 1016.5
20260902061556 17 264 1.6 12.9 0.00 0.00 0.00 75 1016.8
20260902060050 17 225 3.2 14.5 0.00 0.00 0.00 75 1016.8
20260902054550 17 212 3.2 14.5 0.00 0.00 0.00 74 1016.9